Location: Newark
(25.6108°S, 54.5803°W)
Time: 13:24:39
(UTC+00:00)

Explorer 7 - All Passes

Search period start: 30 October 2020 00:00
Search period end: 09 November 2020 00:00
Orbit: 484 x 678 km, 50.3° (Epoch: 30 October)

Date Brightness Start Highest point End Pass type
(mag) Time Alt. Az. Time Alt. Az. Time Alt. Az.
30 Oct - 01:46:13 10° NNE 01:48:19 13° ENE 01:50:25 10° E night (unlit)
30 Oct - 03:23:36 10° NW 03:28:25 71° SW 03:33:23 10° SE night (unlit)
30 Oct - 05:07:40 10° SW 05:09:43 12° SSW 05:11:46 10° S visible
30 Oct - 10:16:23 10° S 10:18:23 13° SSE 10:20:20 10° ESE daylight
30 Oct - 11:55:02 10° SW 11:59:33 86° SE 12:03:44 10° NE daylight
31 Oct - 01:49:01 10° N 01:52:47 23° NE 01:56:39 10° ESE night (unlit)
31 Oct - 03:28:36 10° WNW 03:33:10 41° SW 03:37:51 10° SSE night (unlit)
31 Oct - 10:20:01 10° S 10:23:23 20° SE 10:26:37 10° E daylight
31 Oct - 11:59:50 10° SW 12:04:10 48° NW 12:08:12 10° NNE daylight
01 Nov - 01:52:51 10° NNW 01:57:19 42° NE 02:01:56 10° ESE night (unlit)
01 Nov - 03:33:59 10° W 03:38:01 25° SW 03:42:08 10° SSE visible
01 Nov - 10:24:08 10° SSW 10:28:18 32° SE 10:32:12 10° ENE daylight
01 Nov - 12:05:01 10° WSW 12:08:42 25° NW 12:12:10 10° N daylight
02 Nov - 01:57:10 10° NW 02:01:54 78° NE 02:06:50 10° SE night (unlit)
02 Nov - 03:39:51 10° WSW 03:42:57 17° SW 03:46:06 10° S visible
02 Nov - 10:28:31 10° SW 10:33:05 56° SE 10:37:20 10° ENE daylight
02 Nov - 12:11:02 10° W 12:13:09 13° WNW 12:15:13 10° NNW daylight
03 Nov - 00:23:49 10° NNE 00:26:26 15° ENE 00:29:07 10° E night (unlit)
03 Nov - 02:01:54 10° NW 02:06:34 60° SW 02:11:28 10° SE night (unlit)
03 Nov - 03:46:43 10° SW 03:48:01 11° SSW 03:49:19 10° SSW visible
03 Nov - 08:54:00 10° S 08:56:43 15° SSE 08:59:20 10° ESE daylight
03 Nov - 10:33:08 10° SW 10:37:47 79° NW 10:42:06 10° NE daylight
04 Nov - 00:27:00 10° N 00:30:54 27° NE 00:34:58 10° ESE night (unlit)
04 Nov - 02:07:00 10° WNW 02:11:22 35° SW 02:15:53 10° SSE night (unlit)
04 Nov - 08:57:53 10° SSW 09:01:41 23° SE 09:05:18 10° E daylight
04 Nov - 10:38:01 10° WSW 10:42:22 41° NW 10:46:26 10° NNE daylight
05 Nov - 00:30:58 10° NNW 00:35:26 49° NE 00:40:08 10° SE night (unlit)
05 Nov - 02:12:30 10° W 02:16:14 22° SW 02:20:04 10° SSE night (unlit)
05 Nov - 09:02:06 10° SSW 09:06:33 38° SE 09:10:43 10° ENE daylight
05 Nov - 10:43:19 10° WSW 10:46:52 22° NW 10:50:14 10° N daylight
06 Nov - 00:35:25 10° NW 00:40:02 89° WSW 00:44:57 10° SE night (unlit)
06 Nov - 02:18:33 10° WSW 02:21:13 14° SSW 02:23:55 10° S night (unlit)
06 Nov - 07:28:23 10° S 07:29:56 11° SSE 07:31:29 10° SE visible
06 Nov - 09:06:33 10° SW 09:11:18 67° SE 09:15:44 10° NE daylight
06 Nov - 10:49:47 10° WNW 10:51:18 11° WNW 10:52:48 10° NW daylight
06 Nov - 23:01:36 10° NNE 23:04:33 17° ENE 23:07:36 10° E visible
07 Nov - 00:40:14 10° WNW 00:44:45 50° SW 00:49:30 10° SSE visible
07 Nov - 07:31:45 10° S 07:34:58 17° SE 07:38:06 10° ESE visible
07 Nov - 09:11:13 10° SW 09:15:57 67° NW 09:20:22 10° NNE daylight
07 Nov - 23:05:02 10° N 23:09:01 31° NE 23:13:13 10° ESE visible
08 Nov - 00:45:27 10° WNW 00:49:33 30° SW 00:53:50 10° SSE visible
08 Nov - 07:35:47 10° SSW 07:39:55 27° SE 07:43:52 10° E visible
08 Nov - 09:16:12 10° WSW 09:20:31 35° NW 09:24:35 10° NNE daylight
08 Nov - 23:09:09 10° NNW 23:13:34 58° NE 23:18:16 10° SE visible
